Time,TemperatureF,DewpointF,PressureIn,WindDirection,WindDirectionDegrees,WindSpeedMPH,WindSpeedGustMPH,Humidity,HourlyPrecipIn,Conditions,Clouds,dailyrainin,SoftwareType,DateUTC
2013-04-10 00:03:00,67.5,55.7,29.92,ESE,112,2.2,-999.0,66,-99.99,,,0.00,Acu-Link.com,2013-04-10 04:03:00,
2013-04-10 00:18:00,67.5,55.7,29.92,ENE,67,2.2,-999.0,66,-99.99,,,0.00,Acu-Link.com,2013-04-10 04:18:00,
2013-04-10 00:33:00,67.6,55.8,29.91,SE,135,3.7,-999.0,66,-99.99,,,0.00,Acu-Link.com,2013-04-10 04:33:00,
2013-04-10 00:49:00,67.5,55.7,29.91,South,180,3.2,-999.0,66,-99.99,,,0.00,Acu-Link.com,2013-04-10 04:49:00,
2013-04-10 01:04:00,67.1,55.8,29.91,SSW,202,0.0,-999.0,67,-99.99,,,0.00,Acu-Link.com,2013-04-10 05:04:00,
2013-04-10 01:19:00,67.3,56.0,29.90,NE,45,1.7,-999.0,67,-99.99,,,0.00,Acu-Link.com,2013-04-10 05:19:00,
2013-04-10 01:35:00,67.3,56.0,29.90,South,180,2.7,-999.0,67,-99.99,,,0.00,Acu-Link.com,2013-04-10 05:35:00,
2013-04-10 01:50:00,67.1,56.2,29.90,SSE,157,1.1,-999.0,68,-99.99,,,0.00,Acu-Link.com,2013-04-10 05:50:00,
2013-04-10 02:05:00,66.9,56.0,29.90,NNW,337,2.7,-999.0,68,-99.99,,,0.00,Acu-Link.com,2013-04-10 06:05:00,
2013-04-10 02:20:00,66.7,55.8,29.89,SSE,157,2.2,-999.0,68,-99.99,,,0.00,Acu-Link.com,2013-04-10 06:20:00,
2013-04-10 02:35:00,66.9,56.4,29.88,SW,225,1.1,-999.0,69,-99.99,,,0.00,Acu-Link.com,2013-04-10 06:35:00,
2013-04-10 02:51:00,66.6,56.1,29.88,SSW,202,1.7,-999.0,69,-99.99,,,0.00,Acu-Link.com,2013-04-10 06:51:00,
2013-04-10 03:21:00,68.0,56.6,29.87,WSW,247,8.9,-999.0,67,-99.99,,,0.00,Acu-Link.com,2013-04-10 07:21:00,
2013-04-10 03:51:00,68.5,56.7,29.87,SSW,202,2.2,-999.0,66,-99.99,,,0.00,Acu-Link.com,2013-04-10 07:51:00,
2013-04-10 04:08:00,68.9,56.6,29.87,West,270,2.7,-999.0,65,-99.99,,,0.00,Acu-Link.com,2013-04-10 08:08:00,
2013-04-10 04:23:00,68.5,56.3,29.88,West,270,4.7,-999.0,65,-99.99,,,0.00,Acu-Link.com,2013-04-10 08:23:00,
2013-04-10 04:38:00,68.5,56.7,29.88,SSE,157,3.7,-999.0,66,-99.99,,,0.00,Acu-Link.com,2013-04-10 08:38:00,
2013-04-10 04:53:00,68.0,56.6,29.88,West,270,3.2,-999.0,67,-99.99,,,0.00,Acu-Link.com,2013-04-10 08:53:00,
2013-04-10 05:08:00,67.6,56.2,29.89,SW,225,3.7,-999.0,67,-99.99,,,0.00,Acu-Link.com,2013-04-10 09:08:00,
2013-04-10 05:23:00,67.5,56.6,29.89,West,270,0.0,-999.0,68,-99.99,,,0.00,Acu-Link.com,2013-04-10 09:23:00,
2013-04-10 05:38:00,66.7,56.2,29.90,SW,225,2.2,-999.0,69,-99.99,,,0.00,Acu-Link.com,2013-04-10 09:38:00,
2013-04-10 05:54:00,65.8,56.1,29.90,South,180,0.0,-999.0,71,-99.99,,,0.00,Acu-Link.com,2013-04-10 09:54:00,
2013-04-10 06:09:00,65.3,56.0,29.90,South,180,1.1,-999.0,72,-99.99,,,0.00,Acu-Link.com,2013-04-10 10:09:00,
2013-04-10 06:24:00,64.9,56.0,29.90,WNW,292,1.1,-999.0,73,-99.99,,,0.00,Acu-Link.com,2013-04-10 10:24:00,
2013-04-10 06:39:00,64.8,55.9,29.91,SW,225,2.7,-999.0,73,-99.99,,,0.00,Acu-Link.com,2013-04-10 10:39:00,
2013-04-10 06:55:00,64.4,55.9,29.92,West,270,0.0,-999.0,74,-99.99,,,0.00,Acu-Link.com,2013-04-10 10:55:00,
2013-04-10 07:10:00,64.6,56.1,29.93,West,270,2.7,-999.0,74,-99.99,,,0.00,Acu-Link.com,2013-04-10 11:10:00,
2013-04-10 07:25:00,65.5,56.6,29.93,WNW,292,4.2,-999.0,73,-99.99,,,0.00,Acu-Link.com,2013-04-10 11:25:00,
2013-04-10 07:40:00,67.6,57.1,29.93,NNW,337,3.7,-999.0,69,-99.99,,,0.00,Acu-Link.com,2013-04-10 11:40:00,
2013-04-10 07:55:00,69.4,57.5,29.93,SW,225,2.7,-999.0,66,-99.99,,,0.00,Acu-Link.com,2013-04-10 11:55:00,
2013-04-10 08:11:00,72.3,58.5,29.94,West,270,2.7,-999.0,62,-99.99,,,0.00,Acu-Link.com,2013-04-10 12:11:00,
2013-04-10 08:41:00,75.6,58.3,29.94,North,0,1.1,-999.0,55,-99.99,,,0.00,Acu-Link.com,2013-04-10 12:41:00,
2013-04-10 08:56:00,77.2,58.7,29.94,SW,225,3.2,-999.0,53,-99.99,,,0.00,Acu-Link.com,2013-04-10 12:56:00,
2013-04-10 09:27:00,78.1,59.0,29.93,SW,225,4.2,-999.0,52,-99.99,,,0.00,Acu-Link.com,2013-04-10 13:27:00,
2013-04-10 09:42:00,79.2,58.9,29.93,NNW,337,2.2,-999.0,50,-99.99,,,0.00,Acu-Link.com,2013-04-10 13:42:00,
2013-04-10 10:12:00,83.1,58.3,29.92,South,180,7.8,-999.0,43,-99.99,,,0.00,Acu-Link.com,2013-04-10 14:12:00,
2013-04-10 10:27:00,82.9,60.0,29.92,WSW,247,4.2,-999.0,46,-99.99,,,0.00,Acu-Link.com,2013-04-10 14:27:00,
2013-04-10 10:43:00,83.7,60.7,29.92,West,270,3.7,-999.0,46,-99.99,,,0.00,Acu-Link.com,2013-04-10 14:43:00,
2013-04-10 10:58:00,82.8,60.5,29.91,East,90,0.0,-999.0,47,-99.99,,,0.00,Acu-Link.com,2013-04-10 14:58:00,
2013-04-10 11:13:00,84.4,58.8,29.91,SSE,157,3.7,-999.0,42,-99.99,,,0.00,Acu-Link.com,2013-04-10 15:13:00,
2013-04-10 11:28:00,84.7,58.4,29.90,West,270,2.7,-999.0,41,-99.99,,,0.00,Acu-Link.com,2013-04-10 15:28:00,
2013-04-10 11:44:00,86.0,58.8,29.90,SE,135,2.2,-999.0,40,-99.99,,,0.00,Acu-Link.com,2013-04-10 15:44:00,
2013-04-10 11:59:00,86.0,60.2,29.90,SW,225,3.7,-999.0,42,-99.99,,,0.00,Acu-Link.com,2013-04-10 15:59:00,
2013-04-10 12:14:00,88.2,62.2,29.89,SW,225,4.2,-999.0,42,-99.99,,,0.00,Acu-Link.com,2013-04-10 16:14:00,
2013-04-10 12:29:00,87.1,59.8,29.88,WSW,247,4.2,-999.0,40,-99.99,,,0.00,Acu-Link.com,2013-04-10 16:29:00,
2013-04-10 12:44:00,87.4,59.4,29.88,North,0,3.7,-999.0,39,-99.99,,,0.00,Acu-Link.com,2013-04-10 16:44:00,
2013-04-10 13:00:00,87.4,59.4,29.88,WNW,292,0.0,-999.0,39,-99.99,,,0.00,Acu-Link.com,2013-04-10 17:00:00,
2013-04-10 13:15:00,88.5,58.1,29.88,NNW,337,4.7,-999.0,36,-99.99,,,0.00,Acu-Link.com,2013-04-10 17:15:00,
2013-04-10 13:30:00,88.0,59.9,29.87,West,270,4.2,-999.0,39,-99.99,,,0.00,Acu-Link.com,2013-04-10 17:30:00,
2013-04-10 13:45:00,90.1,61.0,29.87,West,270,5.3,-999.0,38,-99.99,,,0.00,Acu-Link.com,2013-04-10 17:45:00,
2013-04-10 14:00:00,90.3,60.5,29.86,NNW,337,7.3,-999.0,37,-99.99,,,0.00,Acu-Link.com,2013-04-10 18:00:00,
2013-04-10 14:16:00,89.8,60.0,29.86,West,270,3.7,-999.0,37,-99.99,,,0.00,Acu-Link.com,2013-04-10 18:16:00,
2013-04-10 14:46:00,90.0,60.2,29.85,WSW,247,5.3,-999.0,37,-99.99,,,0.00,Acu-Link.com,2013-04-10 18:46:00,
2013-04-10 15:16:00,89.1,59.4,29.83,SW,225,3.7,-999.0,37,-99.99,,,0.00,Acu-Link.com,2013-04-10 19:16:00,
2013-04-10 15:32:00,89.1,58.6,29.83,ESE,112,4.2,-999.0,36,-99.99,,,0.00,Acu-Link.com,2013-04-10 19:32:00,
2013-04-10 15:47:00,89.2,59.5,29.81,South,180,8.3,-999.0,37,-99.99,,,0.00,Acu-Link.com,2013-04-10 19:47:00,
2013-04-10 16:02:00,88.9,59.2,29.81,WNW,292,3.7,-999.0,37,-99.99,,,0.00,Acu-Link.com,2013-04-10 20:02:00,
2013-04-10 16:32:00,88.7,58.3,29.80,SW,225,1.1,-999.0,36,-99.99,,,0.00,Acu-Link.com,2013-04-10 20:32:00,
2013-04-10 16:48:00,88.9,57.7,29.80,East,90,4.2,-999.0,35,-99.99,,,0.00,Acu-Link.com,2013-04-10 20:48:00,
2013-04-10 17:03:00,88.2,57.1,29.79,SW,225,4.2,-999.0,35,-99.99,,,0.00,Acu-Link.com,2013-04-10 21:03:00,
2013-04-10 17:18:00,88.3,57.1,29.79,SSW,202,9.4,-999.0,35,-99.99,,,0.00,Acu-Link.com,2013-04-10 21:18:00,
2013-04-10 17:33:00,87.4,57.1,29.80,WSW,247,2.2,-999.0,36,-99.99,,,0.00,Acu-Link.com,2013-04-10 21:33:00,
2013-04-10 17:49:00,86.9,57.5,29.79,North,0,2.2,-999.0,37,-99.99,,,0.00,Acu-Link.com,2013-04-10 21:49:00,
2013-04-10 18:04:00,86.5,57.1,29.78,West,270,3.2,-999.0,37,-99.99,,,0.00,Acu-Link.com,2013-04-10 22:04:00,
2013-04-10 18:19:00,85.8,57.2,29.78,WSW,247,1.7,-999.0,38,-99.99,,,0.00,Acu-Link.com,2013-04-10 22:19:00,
2013-04-10 18:34:00,85.5,56.2,29.78,ESE,112,0.0,-999.0,37,-99.99,,,0.00,Acu-Link.com,2013-04-10 22:34:00,
2013-04-10 18:49:00,83.8,56.9,29.77,South,180,0.0,-999.0,40,-99.99,,,0.00,Acu-Link.com,2013-04-10 22:49:00,
2013-04-10 19:05:00,82.4,55.6,29.76,SSW,202,3.2,-999.0,40,-99.99,,,0.00,Acu-Link.com,2013-04-10 23:05:00,
2013-04-10 19:20:00,80.8,54.9,29.76,South,180,1.7,-999.0,41,-99.99,,,0.00,Acu-Link.com,2013-04-10 23:20:00,
2013-04-10 19:35:00,79.7,53.9,29.75,NNE,22,0.0,-999.0,41,-99.99,,,0.00,Acu-Link.com,2013-04-10 23:35:00,
2013-04-10 19:50:00,78.6,53.6,29.75,South,180,2.7,-999.0,42,-99.99,,,0.00,Acu-Link.com,2013-04-10 23:50:00,
2013-04-10 20:05:00,77.9,52.9,29.76,West,270,1.1,-999.0,42,-99.99,,,0.00,Acu-Link.com,2013-04-11 00:05:00,
2013-04-10 20:21:00,77.0,53.4,29.75,SSE,157,0.0,-999.0,44,-99.99,,,0.00,Acu-Link.com,2013-04-11 00:21:00,
2013-04-10 20:36:00,75.9,54.8,29.75,SSE,157,1.1,-999.0,48,-99.99,,,0.00,Acu-Link.com,2013-04-11 00:36:00,
2013-04-10 20:51:00,75.0,58.7,29.75,West,270,2.7,-999.0,57,-99.99,,,0.00,Acu-Link.com,2013-04-11 00:51:00,
2013-04-10 21:07:00,74.3,59.5,29.76,South,180,2.7,-999.0,60,-99.99,,,0.00,Acu-Link.com,2013-04-11 01:07:00,
2013-04-10 21:22:00,73.2,59.8,29.77,SSW,202,2.2,-999.0,63,-99.99,,,0.00,Acu-Link.com,2013-04-11 01:22:00,
2013-04-10 21:37:00,72.9,60.0,29.77,SSW,202,5.8,-999.0,64,-99.99,,,0.00,Acu-Link.com,2013-04-11 01:37:00,
2013-04-10 21:52:00,73.9,60.0,29.76,South,180,1.1,-999.0,62,-99.99,,,0.00,Acu-Link.com,2013-04-11 01:52:00,
2013-04-10 22:07:00,74.1,60.2,29.76,West,270,0.0,-999.0,62,-99.99,,,0.00,Acu-Link.com,2013-04-11 02:07:00,
2013-04-10 22:23:00,73.8,60.0,29.76,WSW,247,2.2,-999.0,62,-99.99,,,0.00,Acu-Link.com,2013-04-11 02:23:00,
2013-04-10 22:38:00,73.6,59.8,29.77,ENE,67,0.0,-999.0,62,-99.99,,,0.00,Acu-Link.com,2013-04-11 02:38:00,
2013-04-10 22:53:00,72.9,59.6,29.77,SSW,202,0.0,-999.0,63,-99.99,,,0.00,Acu-Link.com,2013-04-11 02:53:00,
2013-04-10 23:08:00,72.7,59.4,29.77,SSE,157,0.0,-999.0,63,-99.99,,,0.00,Acu-Link.com,2013-04-11 03:08:00,
2013-04-10 23:23:00,72.5,59.6,29.77,SSE,157,1.1,-999.0,64,-99.99,,,0.00,Acu-Link.com,2013-04-11 03:23:00,
2013-04-10 23:39:00,72.1,59.2,29.77,South,180,2.7,-999.0,64,-99.99,,,0.00,Acu-Link.com,2013-04-11 03:39:00,
2013-04-10 23:54:00,72.0,59.6,29.78,NE,45,0.0,-999.0,65,-99.99,,,0.00,Acu-Link.com,2013-04-11 03:54:00,